Flag for U.S.A. Weather past 2 weeks in Shreveport, Louisiana, U.S.A.

Now
48 °F

Mostly cloudy.


Feels Like: 44 °F
Forecast: 34 / 53 °F
Wind: 8 mph from Northeast

Location: Shreveport Regional Airport

Current Time: Dec 17, 2014 at 5:11:06 PM

Latest Report: Dec 17, 2014 at 3:56 PM


Visibility: 10 mi

Pressure: 30.18 "Hg

Humidity: 66%

Dew point: 37 °F

Location of ShreveportLocation

Historic Weather in Shreveport — Graph

°F

Shreveport temperature yesterday

Maximum temperature yesterday: 54 °F (at 2:56 PM)
Minimum temperature yesterday: 37 °F (at 10:56 PM)
Average temperature yesterday: 46 °F

Past Weeks' High & Low Weather Summary

 TemperatureHumidityPressure
High74 °F (Dec 5, 3:56 PM)100% (Dec 2, 11:56 PM)30.43 "Hg (Dec 2, 11:56 PM)
Low36 °F (Dec 17, 12:56 AM)25% (Dec 15, 2:56 PM)29.85 "Hg (Dec 15, 5:56 AM)
Average54 °F80%30.21 "Hg
* Reported Dec 2 3:56 PM — Dec 17 3:56 PM, Shreveport, Weather by CustomWeather, © 2014

Note: Actual official high and low records may vary slightly from our data, if they occured in-between our weather recording intervals... More about our weather records

Advertising

Shreveport weather history for previous 24 hours

 ConditionsComfort  
Time TempWeatherWind HumidityBarometerVisibility
3:56 PM
Dec 17
48 °FMostly cloudy.8 mph66%30.18 "Hg10 mi
2:56 PM48 °FOvercast.5 mph66%30.19 "Hg10 mi
1:56 PM47 °FOvercast.7 mph66%30.20 "Hg10 mi
12:56 PM46 °FOvercast.6 mph68%30.24 "Hg10 mi
11:56 AM45 °FMore clouds than sun.5 mph68%30.28 "Hg10 mi
10:56 AM43 °FOvercast.8 mph74%30.30 "Hg10 mi
9:56 AM42 °FMore clouds than sun.No wind73%30.34 "Hg10 mi
8:56 AM40 °FOvercast.6 mph80%30.32 "Hg10 mi
7:56 AM38 °FMostly cloudy.9 mph83%30.29 "Hg10 mi
6:56 AM37 °FHigh level clouds.6 mph82%30.30 "Hg10 mi
5:56 AM38 °FHigh level clouds.8 mph79%30.28 "Hg10 mi
4:56 AM37 °FPassing clouds.3 mph82%30.27 "Hg10 mi
3:56 AM38 °FPassing clouds.3 mph79%30.28 "Hg10 mi
2:56 AM38 °FPassing clouds.8 mph83%30.28 "Hg10 mi
1:56 AM40 °FPassing clouds.9 mph80%30.28 "Hg10 mi
12:56 AM36 °FPassing clouds.No wind89%30.27 "Hg10 mi
11:56 PM
Dec 16
37 °FPassing clouds.No wind86%30.30 "Hg10 mi
10:56 PM37 °FPassing clouds.No wind89%30.31 "Hg10 mi
9:56 PM39 °FPassing clouds.No wind86%30.30 "Hg10 mi
8:56 PM40 °FPassing clouds.No wind83%30.30 "Hg10 mi
7:56 PM46 °FPassing clouds.5 mph66%30.28 "Hg10 mi
6:56 PM48 °FPassing clouds.7 mph61%30.27 "Hg10 mi
5:56 PM49 °FPassing clouds.8 mph59%30.26 "Hg10 mi
Weather by CustomWeather, © 2014

See weather overviewHow to use our weather pages